contact:dominique.lefevre@mio.osupytheas.fr, maurice.libes@osupytheas.fr, didier.mallarino@osupytheas.fr
Project:EMSO http://www.emso-fr.org/EMSO-France
Depth: 2436.0 m
Title:EMSO Ligure Ouest : Data MII capteur CSTAR
DateTime,Latitude,Longitude,Instrument_Serial,Reference_Counts,Signal_Counts,Corrected_Signal_raw_counts,Calculated_Beam_c_inverse_meters,Internal_thermistor_counts
DateTime,Latitude,Longitude,Instrument_Serial,Reference_Counts,Signal_Counts,Corrected_Signal_raw_counts,Calculated_Beam_c_inverse_meters,Internal_thermistor_counts
2021-11-18T13:40:07,42.805,6.029,CST-1368DR,5095,6678,14020,0.431,551
2021-11-18T13:43:08,42.805,6.029,CST-1368DR,5094,6677,14022,0.431,551
2021-11-18T13:46:10,42.805,6.029,CST-1368DR,5094,6675,14018,0.432,551
2021-11-18T13:49:11,42.805,6.029,CST-1368DR,5093,6676,14022,0.431,551
2021-11-18T13:52:13,42.805,6.029,CST-1368DR,5093,6676,14022,0.431,551
2021-11-18T13:55:15,42.805,6.029,CST-1368DR,5093,6676,14022,0.431,551
2021-11-18T13:58:16,42.805,6.029,CST-1368DR,5093,6676,14021,0.431,551
2021-11-18T14:01:18,42.805,6.029,CST-1368DR,5093,6675,14020,0.431,551
2021-11-18T14:04:19,42.805,6.029,CST-1368DR,5092,6675,14023,0.430,551
2021-11-18T14:07:21,42.805,6.029,CST-1368DR,5092,6674,14019,0.432,551
2021-11-18T14:10:23,42.805,6.029,CST-1368DR,5092,6674,14021,0.431,551
2021-11-18T14:13:24,42.805,6.029,CST-1368DR,5092,6674,14021,0.431,551
2021-11-18T14:16:26,42.805,6.029,CST-1368DR,5092,6674,14020,0.431,551
2021-11-18T14:19:27,42.805,6.029,CST-1368DR,5092,6673,14019,0.432,551
2021-11-18T14:22:29,42.805,6.029,CST-1368DR,5092,6674,14020,0.431,551
2021-11-18T14:25:30,42.805,6.029,CST-1368DR,5091,6674,14023,0.430,551
2021-11-18T14:28:32,42.805,6.029,CST-1368DR,5091,6674,14023,0.430,551
2021-11-18T14:31:34,42.805,6.029,CST-1368DR,5091,6673,14021,0.431,551
2021-11-18T14:34:35,42.805,6.029,CST-1368DR,5091,6673,14022,0.431,551
2021-11-18T14:37:37,42.805,6.029,CST-1368DR,5091,6673,14020,0.431,551
2021-11-18T14:40:38,42.805,6.029,CST-1368DR,5091,6673,14021,0.431,551
2021-11-18T14:43:40,42.805,6.029,CST-1368DR,5091,6673,14021,0.431,551
2021-11-18T14:46:42,42.805,6.029,CST-1368DR,5091,6673,14020,0.431,551
2021-11-18T14:49:43,42.805,6.029,CST-1368DR,5091,6672,14019,0.432,551
2021-11-18T14:52:45,42.805,6.029,CST-1368DR,5090,6673,14023,0.430,551
2021-11-18T14:55:46,42.805,6.029,CST-1368DR,5090,6671,14020,0.431,551
2021-11-18T14:58:48,42.805,6.029,CST-1368DR,5090,6672,14022,0.431,551
2021-11-18T15:01:49,42.805,6.029,CST-1368DR,5090,6672,14022,0.431,551
2021-11-18T15:04:51,42.805,6.029,CST-1368DR,5090,6671,14020,0.431,551
2021-11-18T15:07:53,42.805,6.029,CST-1368DR,5090,6666,14009,0.434,551
2021-11-18T15:10:54,42.805,6.029,CST-1368DR,5090,6671,14020,0.431,551
2021-11-18T15:13:56,42.805,6.029,CST-1368DR,5090,6670,14018,0.432,551
2021-11-18T15:16:57,42.805,6.029,CST-1368DR,5090,6671,14019,0.432,551
2021-11-18T15:19:59,42.805,6.029,CST-1368DR,5089,6671,14021,0.431,551
2021-11-18T15:23:01,42.805,6.029,CST-1368DR,5089,6671,14022,0.431,551
2021-11-18T15:26:02,42.805,6.029,CST-1368DR,5089,6669,14018,0.432,551
2021-11-18T15:29:04,42.805,6.029,CST-1368DR,5089,6670,14020,0.431,551
2021-11-18T15:32:05,42.805,6.029,CST-1368DR,5089,6670,14020,0.431,551
2021-11-18T15:35:07,42.805,6.029,CST-1368DR,5089,6670,14020,0.431,551
2021-11-18T15:38:08,42.805,6.029,CST-1368DR,5089,6670,14020,0.431,551
2021-11-18T15:41:10,42.805,6.029,CST-1368DR,5089,6670,14020,0.431,551
2021-11-18T15:44:12,42.805,6.029,CST-1368DR,5089,6670,14019,0.432,551
2021-11-18T15:47:13,42.805,6.029,CST-1368DR,5089,6670,14020,0.431,551
2021-11-18T15:50:15,42.805,6.029,CST-1368DR,5089,6670,14019,0.432,550
2021-11-18T15:53:16,42.805,6.029,CST-1368DR,5089,6670,14019,0.432,551
2021-11-18T15:56:18,42.805,6.029,CST-1368DR,5089,6670,14019,0.432,551
2021-11-18T15:59:19,42.805,6.029,CST-1368DR,5089,6670,14019,0.432,551
2021-11-18T16:02:21,42.805,6.029,CST-1368DR,5088,6669,14020,0.431,551
2021-11-18T16:05:23,42.805,6.029,CST-1368DR,5088,6669,14021,0.431,551
2021-11-18T16:08:24,42.805,6.029,CST-1368DR,5088,6669,14021,0.431,551
2021-11-18T16:11:26,42.805,6.029,CST-1368DR,5088,6669,14019,0.432,551
2021-11-18T16:14:27,42.805,6.029,CST-1368DR,5088,6669,14019,0.432,551
2021-11-18T16:17:29,42.805,6.029,CST-1368DR,5088,6668,14018,0.432,551
2021-11-18T16:20:31,42.805,6.029,CST-1368DR,5088,6667,14017,0.432,551
2021-11-18T16:23:32,42.805,6.029,CST-1368DR,5088,6668,14018,0.432,551
2021-11-18T16:26:34,42.805,6.029,CST-1368DR,5088,6669,14019,0.432,551
2021-11-18T16:29:35,42.805,6.029,CST-1368DR,5088,6669,14019,0.432,551
2021-11-18T16:32:37,42.805,6.029,CST-1368DR,5088,6668,14017,0.432,551
2021-11-18T16:35:38,42.805,6.029,CST-1368DR,5088,6668,14018,0.432,551
2021-11-18T16:38:40,42.805,6.029,CST-1368DR,5088,6667,14017,0.432,551
2021-11-18T16:41:42,42.805,6.029,CST-1368DR,5088,6667,14016,0.432,551
2021-11-18T16:44:43,42.805,6.029,CST-1368DR,5088,6668,14018,0.432,551
2021-11-18T16:47:45,42.805,6.029,CST-1368DR,5088,6668,14018,0.432,551
2021-11-18T16:50:46,42.805,6.029,CST-1368DR,5088,6667,14016,0.432,551
2021-11-18T16:53:48,42.805,6.029,CST-1368DR,5087,6668,14020,0.431,551
2021-11-18T16:56:50,42.805,6.029,CST-1368DR,5087,6668,14020,0.431,551
2021-11-18T16:59:51,42.805,6.029,CST-1368DR,5087,6667,14019,0.432,551
2021-11-18T17:02:53,42.805,6.029,CST-1368DR,5087,6668,14020,0.431,551
2021-11-18T17:05:54,42.805,6.029,CST-1368DR,5087,6668,14020,0.431,551
2021-11-18T17:08:56,42.805,6.029,CST-1368DR,5087,6667,14018,0.432,551
2021-11-18T17:11:57,42.805,6.029,CST-1368DR,5087,6667,14018,0.432,551
2021-11-18T17:14:59,42.805,6.029,CST-1368DR,5087,6667,14019,0.432,551
2021-11-18T17:18:01,42.805,6.029,CST-1368DR,5087,6668,14020,0.431,551
2021-11-18T17:21:02,42.805,6.029,CST-1368DR,5087,6667,14018,0.432,551
2021-11-18T17:24:04,42.805,6.029,CST-1368DR,5087,6667,14018,0.432,551
2021-11-18T17:27:05,42.805,6.029,CST-1368DR,5087,6667,14019,0.432,551
2021-11-18T17:30:07,42.805,6.029,CST-1368DR,5087,6666,14016,0.432,551
2021-11-18T17:33:08,42.805,6.029,CST-1368DR,5087,6667,14018,0.432,551
2021-11-18T17:36:10,42.805,6.029,CST-1368DR,5087,6667,14019,0.432,551
2021-11-18T17:39:12,42.805,6.029,CST-1368DR,5087,6667,14018,0.432,551
2021-11-18T17:42:13,42.805,6.029,CST-1368DR,5087,6667,14018,0.432,551
2021-11-18T17:45:15,42.805,6.029,CST-1368DR,5087,6667,14019,0.432,551
2021-11-18T17:48:16,42.805,6.029,CST-1368DR,5087,6666,14017,0.432,551
2021-11-18T17:51:18,42.805,6.029,CST-1368DR,5086,6667,14021,0.431,551
2021-11-18T17:54:20,42.805,6.029,CST-1368DR,5086,6667,14020,0.431,551
2021-11-18T17:57:21,42.805,6.029,CST-1368DR,5086,6666,14019,0.432,551
2021-11-18T18:00:23,42.805,6.029,CST-1368DR,5086,6666,14019,0.432,551
2021-11-18T18:03:24,42.805,6.029,CST-1368DR,5086,6666,14019,0.432,551
2021-11-18T18:06:26,42.805,6.029,CST-1368DR,5086,6666,14019,0.432,551
2021-11-18T18:09:27,42.805,6.029,CST-1368DR,5086,6667,14020,0.431,551
2021-11-18T18:12:29,42.805,6.029,CST-1368DR,5086,6666,14020,0.431,551
2021-11-18T18:15:31,42.805,6.029,CST-1368DR,5086,6666,14020,0.431,551
2021-11-18T18:18:32,42.805,6.029,CST-1368DR,5086,6665,14018,0.432,551
2021-11-18T18:21:34,42.805,6.029,CST-1368DR,5086,6665,14018,0.432,551
2021-11-18T18:24:35,42.805,6.029,CST-1368DR,5086,6666,14019,0.432,551
2021-11-18T18:27:37,42.805,6.029,CST-1368DR,5086,6666,14019,0.432,551
2021-11-18T18:30:39,42.805,6.029,CST-1368DR,5086,6664,14015,0.433,551
2021-11-18T18:33:40,42.805,6.029,CST-1368DR,5086,6665,14016,0.432,551
2021-11-18T18:36:42,42.805,6.029,CST-1368DR,5086,6666,14018,0.432,551
2021-11-18T18:39:43,42.805,6.029,CST-1368DR,5086,6664,14015,0.433,551
2021-11-18T18:42:45,42.805,6.029,CST-1368DR,5086,6664,14016,0.432,551
2021-11-18T18:45:46,42.805,6.029,CST-1368DR,5086,6664,14016,0.432,551
2021-11-18T18:48:48,42.805,6.029,CST-1368DR,5085,6664,14017,0.432,551
2021-11-18T18:51:50,42.805,6.029,CST-1368DR,5086,6665,14018,0.432,551
2021-11-18T18:54:51,42.805,6.029,CST-1368DR,5085,6665,14020,0.431,551
2021-11-18T18:57:53,42.805,6.029,CST-1368DR,5085,6666,14021,0.431,551
2021-11-18T19:00:54,42.805,6.029,CST-1368DR,5085,6666,14021,0.431,551
2021-11-18T19:03:56,42.805,6.029,CST-1368DR,5085,6665,14019,0.432,551
2021-11-18T19:06:58,42.805,6.029,CST-1368DR,5085,6666,14021,0.431,551
2021-11-18T19:09:59,42.805,6.029,CST-1368DR,5085,6665,14019,0.432,551
2021-11-18T19:13:01,42.805,6.029,CST-1368DR,5085,6666,14021,0.431,551
